sat.trackr.live / text

‹ back to catalog

KUIPER-00072

NORAD 64819 · 2025-151D

PAYLOAD ACTIVE UNKNOWN

§ Identity

Operator
Country
US
Launch date
2025-07-16
Launch site
AFETR
Launch vehicle
Mass (kg)
RCS (m²)

External: N2YO · Heavens-Above · Gunter

§ Orbital elements

Epoch: 2026-09-21T21:15:14.607072Z

Period
97.30 min
Inclination
51.8981°
Eccentricity
0.0001096
Mean motion
14.79929200 rev/d
Perigee alt
628.8 km
Apogee alt
630.3 km
Semi-major
7,007.7 km
B*
2.6089e-4
RAAN
135.4411°
Arg perigee
93.6467°
Mean anomaly
266.4621°
Rev number
6,460

§ Raw data

KUIPER-000721 64819U 25151D   26264.88558573  .00001768  00000+0  26089-3 0  99902 64819  51.8981 135.4411 0001096  93.6467 266.4621 14.79929200 64608

JSON: /api/v1/satellites/64819 · /tle

For live sub-satellite position, see the globe view (requires WebGL).

§ Visibility from observer

Set your observer location to see the next 7 days of passes ≥ 10°. The values pass through the URL so the page stays shareable.

No JS? Fill the form by hand. The geolocation button needs JavaScript.